Location: Byhalia Creek
(34.8270°N, 89.8040°W)
Time: 20:59:08
(UTC+00:00)

Timation 2 Rocket - Pass Details

Date: 22 April 2026
Orbit: 904 x 1074 km, 70.0° (Epoch: 21 May)

Event Time Altitude Azimuth Distance (km) Brightness Sun altitude
Rises 01:17:05 0° 342° (NNW) 3,680 7.7 -8.7°
Reaches altitude 10° 01:19:40 10° 346° (NNW) 2,754 6.9 -9.2°
Maximum altitude 01:26:00 56° 65° (ENE) 1,195 4.3 -10.4°
Enters shadow 01:32:33 10° 143° (SE) 2,847 5.9 -11.7°
